Flag for Saint Lucia Weather past 2 weeks in Castries, Saint Lucia

Now
81 °F

Passing clouds.


Feels Like: 84 °F
Forecast: 78 / 83 °F
Wind: 13 mph from East

Location: Vigie

Current Time: Feb 27, 2015 at 8:46:02 AM

Latest Report: Feb 27, 2015 at 8:00 AM


Visibility: N/A

Pressure: 30.04 "Hg

Humidity: 70%

Dew point: 70 °F

Location of CastriesLocation

Historic Weather in Castries — Graph

°F

Castries temperature yesterday

Maximum temperature yesterday: 86 °F (at 2:00 PM)
Minimum temperature yesterday: 77 °F (at 6:00 AM)
Average temperature yesterday: 81 °F

Past Weeks' High & Low Weather Summary

 TemperatureHumidityPressure
High88 °F (Feb 12, 1:00 PM)100% (Feb 18, 6:00 PM)32.52 "Hg (Feb 18, 6:00 PM)
Low73 °F (Feb 24, 6:30 AM)51% (Feb 19, 11:00 AM)29.92 "Hg (Feb 19, 4:00 PM)
Average81 °F71%30.01 "Hg
* Reported Feb 12 8:00 AM — Feb 27 8:00 AM, Castries, Weather by CustomWeather, © 2015

Note: Actual official high and low records may vary slightly from our data, if they occured in-between our weather recording intervals... More about our weather records

Advertising

Castries weather history for previous 24 hours

 ConditionsComfort  
Time TempWeatherWind HumidityBarometerVisibility
8:00 AM
Fri, Feb 27
81 °FPassing clouds.13 mph70%30.04 "HgN/A
7:00 AM79 °FSprinkles. Partly sunny.12 mph74%30.01 "HgN/A
6:00 AM79 °FSprinkles. Passing clouds.10 mph74%30.01 "HgN/A
9:00 PM
Thu, Feb 26
77 °FSprinkles. Passing clouds.14 mph83%30.04 "Hg5 mi
8:00 PM79 °FPassing clouds.12 mph74%30.01 "HgN/A
7:00 PM77 °FSprinkles. Passing clouds.12 mph83%29.98 "HgN/A
6:00 PM81 °FScattered showers. Partly sunny.13 mph74%29.98 "Hg6 mi
5:00 PM82 °FScattered clouds.15 mph66%29.95 "HgN/A
4:00 PM82 °FPassing clouds.16 mph66%30.04 "HgN/A
3:00 PM84 °FPassing clouds.15 mph62%29.95 "HgN/A
2:00 PM86 °FPassing clouds.16 mph55%29.98 "HgN/A
1:00 PM84 °FScattered clouds.15 mph62%30.01 "HgN/A
12:00 PM84 °FPartly sunny.17 mph62%30.04 "HgN/A
11:00 AM82 °FPartly sunny.13 mph70%30.04 "HgN/A
10:00 AM81 °FScattered clouds.15 mph70%30.07 "HgN/A
9:00 AM81 °FPartly sunny.12 mph70%30.07 "HgN/A
8:00 AM79 °FPassing clouds.10 mph74%30.04 "HgN/A
Weather by CustomWeather, © 2015

See weather overviewHow to use our weather pages